Simultaneous Nadir Overpasses (SNOs) Predictions

Prediction of SNOs between LANDSAT-8 and METOP-B Satellite Orbit:

Table of predicted SNOs for the next 14.0 days since TLE Epoch: 8/16/2014
Index Date (LANDSAT-8) Time (LANDSAT-8) Lat,Lon (LANDSAT-8) SZA (LANDSAT-8 ) Date (METOP-B) Time (METOP-B) Lat,Lon (METOP-B) SZA (METOP-B ) Distance(km) Time Diff (sec)
1 08/16/2014 12:03:22 81.18, 39.96 69.59 08/16/2014 12:03:13 81.17, 39.83 69.57 2.43 9
2 08/16/2014 12:52:48 -81.20,-152.05 110.35 08/16/2014 12:53:52 -81.20,-151.93 110.31 2.06 64
3 08/19/2014 07:37:38 81.17, 106.26 70.49 08/19/2014 07:37:35 81.17, 106.13 70.47 2.18 3
4 08/19/2014 08:27:04 -81.19, -85.74 109.45 08/19/2014 08:28:14 -81.20, -85.59 109.40 2.66 70
5 08/22/2014 02:22:28 -81.15, 4.82 108.62 08/22/2014 02:21:18 -81.15, 4.71 108.66 1.91 70
6 08/22/2014 03:11:53 81.18, 172.85 71.45 08/22/2014 03:11:56 81.18, 172.80 71.45 0.94 3
7 08/24/2014 21:56:42 -81.16, 71.35 107.64 08/24/2014 21:55:38 -81.16, 71.38 107.66 0.40 64
8 08/24/2014 22:46:07 81.18,-120.63 72.44 08/24/2014 22:46:16 81.18,-120.56 72.45 1.19 9
9 08/27/2014 17:30:57 -81.16, 137.81 106.64 08/27/2014 17:30:00 -81.16, 137.63 106.69 3.04 57




NCC Satellite Simultaneous Nadir Overpasses (SNOs) Prediction Service
